Location: Lanoux
(43.1180°N, 1.4255°E)
Time: 14:31:33
(UTC+00:00)

Tiangong - Pass Details

Date: 19 February 2026
Orbit: 382 x 391 km, 41.5° (Epoch: 5 March)

Event Time Altitude Azimuth Distance (km) Brightness Sun altitude
Rises 17:50:15 0° 272° (W) 2,260 3.8 -4.3°
Reaches altitude 10° 17:52:21 10° 268° (W) 1,403 2.5 -4.7°
Maximum altitude 17:55:28 56° 189° (S) 459 -1.6 -5.3°
Drops below altitude 10° 17:58:33 10° 110° (ESE) 1,396 0.2 -5.8°
Enters shadow 17:59:26 - 108° (ESE) 1,754 0.6 -6.0°
